Time,TemperatureF,DewpointF,PressureIn,WindDirection,WindDirectionDegrees,WindSpeedMPH,WindSpeedGustMPH,Humidity,HourlyPrecipIn,Conditions,Clouds,dailyrainin,SoftwareType,DateUTC
2013-01-24 00:00:00,23.0,11.2,30.43,NNW,348,6.0,6.0,60,0.00,,,0.00,Wunderground v.1.15,2013-01-24 06:00:00,
2013-01-24 00:06:00,22.8,11.0,30.43,NW,326,5.0,11.0,60,0.00,,,0.00,Wunderground v.1.15,2013-01-24 06:06:00,
2013-01-24 00:12:00,22.6,10.8,30.43,North,355,4.0,8.0,60,0.00,,,0.00,Wunderground v.1.15,2013-01-24 06:12:00,
2013-01-24 00:18:00,22.4,10.6,30.44,North,5,4.0,11.0,60,0.00,,,0.00,Wunderground v.1.15,2013-01-24 06:18:00,
2013-01-24 00:24:00,22.2,10.4,30.44,NNW,342,5.0,7.0,60,0.00,,,0.00,Wunderground v.1.15,2013-01-24 06:24:00,
2013-01-24 00:30:00,22.0,10.2,30.44,North,360,5.0,11.0,60,0.00,,,0.00,Wunderground v.1.15,2013-01-24 06:30:00,
2013-01-24 00:36:00,21.8,10.0,30.44,NNE,17,8.0,13.0,60,0.00,,,0.00,Wunderground v.1.15,2013-01-24 06:36:00,
2013-01-24 00:42:00,21.5,9.7,30.44,North,9,8.0,11.0,60,0.00,,,0.00,Wunderground v.1.15,2013-01-24 06:42:00,
2013-01-24 00:48:00,21.2,9.5,30.45,North,360,8.0,11.0,60,0.00,,,0.00,Wunderground v.1.15,2013-01-24 06:48:00,
2013-01-24 00:54:00,21.0,9.3,30.45,North,5,6.0,11.0,60,0.00,,,0.00,Wunderground v.1.15,2013-01-24 06:54:00,
2013-01-24 01:00:00,20.8,9.1,30.45,NNE,14,5.0,6.0,60,0.00,,,0.00,Wunderground v.1.15,2013-01-24 07:00:00,
2013-01-24 01:06:00,20.6,8.9,30.46,NNW,331,5.0,7.0,60,0.00,,,0.00,Wunderground v.1.15,2013-01-24 07:06:00,
2013-01-24 01:12:00,20.3,8.6,30.46,North,360,5.0,5.0,60,0.00,,,0.00,Wunderground v.1.15,2013-01-24 07:12:00,
2013-01-24 01:18:00,20.1,8.4,30.46,North,355,6.0,11.0,60,0.00,,,0.00,Wunderground v.1.15,2013-01-24 07:18:00,
2013-01-24 01:24:00,19.9,8.2,30.47,North,360,7.0,7.0,60,0.00,,,0.00,Wunderground v.1.15,2013-01-24 07:24:00,
2013-01-24 01:30:00,19.4,7.8,30.47,NNE,24,7.0,10.0,60,0.00,,,0.00,Wunderground v.1.15,2013-01-24 07:30:00,
2013-01-24 01:36:00,18.9,7.3,30.47,NNE,17,7.0,10.0,60,0.00,,,0.00,Wunderground v.1.15,2013-01-24 07:36:00,
2013-01-24 01:42:00,18.6,6.6,30.47,North,11,6.0,6.0,59,0.00,,,0.00,Wunderground v.1.15,2013-01-24 07:42:00,
2013-01-24 01:48:00,18.3,6.7,30.47,NNE,19,5.0,6.0,60,0.00,,,0.00,Wunderground v.1.15,2013-01-24 07:48:00,
2013-01-24 01:54:00,18.0,6.4,30.47,NNE,28,6.0,7.0,60,0.00,,,0.00,Wunderground v.1.15,2013-01-24 07:54:00,
2013-01-24 02:00:00,17.6,5.7,30.48,NE,34,8.0,8.0,59,0.00,,,0.00,Wunderground v.1.15,2013-01-24 08:00:00,
2013-01-24 02:06:00,17.2,5.3,30.48,NNE,22,9.0,12.0,59,0.00,,,0.00,Wunderground v.1.15,2013-01-24 08:06:00,
2013-01-24 02:12:00,16.8,4.9,30.48,NNE,25,7.0,12.0,59,0.00,,,0.00,Wunderground v.1.15,2013-01-24 08:12:00,
2013-01-24 02:18:00,16.6,4.7,30.48,North,350,6.0,12.0,59,0.00,,,0.00,Wunderground v.1.15,2013-01-24 08:18:00,
2013-01-24 02:24:00,16.3,4.5,30.49,North,355,6.0,12.0,59,0.00,,,0.00,Wunderground v.1.15,2013-01-24 08:24:00,
2013-01-24 02:30:00,15.9,4.1,30.50,North,360,6.0,12.0,59,0.00,,,0.00,Wunderground v.1.15,2013-01-24 08:30:00,
2013-01-24 02:36:00,15.5,3.7,30.50,NNE,17,7.0,12.0,59,0.00,,,0.00,Wunderground v.1.15,2013-01-24 08:36:00,
2013-01-24 02:42:00,15.2,3.8,30.50,NNE,23,7.0,12.0,60,0.00,,,0.00,Wunderground v.1.15,2013-01-24 08:42:00,
2013-01-24 02:48:00,14.9,3.1,30.50,NNE,18,6.0,12.0,59,0.00,,,0.00,Wunderground v.1.15,2013-01-24 08:48:00,
2013-01-24 02:54:00,14.7,3.3,30.51,NE,44,6.0,12.0,60,0.00,,,0.00,Wunderground v.1.15,2013-01-24 08:54:00,
2013-01-24 03:00:00,14.5,3.1,30.52,NNE,15,6.0,6.0,60,0.00,,,0.00,Wunderground v.1.15,2013-01-24 09:00:00,
2013-01-24 03:06:00,14.3,2.9,30.51,NNE,17,6.0,13.0,60,0.00,,,0.00,Wunderground v.1.15,2013-01-24 09:06:00,
2013-01-24 03:12:00,14.1,2.7,30.51,NNE,17,7.0,12.0,60,0.00,,,0.00,Wunderground v.1.15,2013-01-24 09:12:00,
2013-01-24 03:18:00,13.7,2.4,30.52,North,355,7.0,13.0,60,0.00,,,0.00,Wunderground v.1.15,2013-01-24 09:18:00,
2013-01-24 03:24:00,13.4,2.1,30.52,NNE,15,9.0,12.0,60,0.00,,,0.00,Wunderground v.1.15,2013-01-24 09:24:00,
2013-01-24 03:30:00,13.2,1.9,30.52,NNE,24,7.0,7.0,60,0.00,,,0.00,Wunderground v.1.15,2013-01-24 09:30:00,
2013-01-24 03:36:00,13.0,1.7,30.53,NNE,17,6.0,12.0,60,0.00,,,0.00,Wunderground v.1.15,2013-01-24 09:36:00,
2013-01-24 03:42:00,12.8,1.5,30.53,NNE,25,5.0,9.0,60,0.00,,,0.00,Wunderground v.1.15,2013-01-24 09:42:00,
2013-01-24 03:48:00,12.7,1.4,30.53,NNE,20,6.0,12.0,60,0.00,,,0.00,Wunderground v.1.15,2013-01-24 09:48:00,
2013-01-24 03:54:00,12.6,1.3,30.53,NNE,26,6.0,9.0,60,0.00,,,0.00,Wunderground v.1.15,2013-01-24 09:54:00,
2013-01-24 04:00:00,12.4,1.1,30.53,NE,36,6.0,6.0,60,0.00,,,0.00,Wunderground v.1.15,2013-01-24 10:00:00,
2013-01-24 04:06:00,12.3,1.0,30.53,NNE,18,5.0,6.0,60,0.00,,,0.00,Wunderground v.1.15,2013-01-24 10:06:00,
2013-01-24 04:12:00,12.3,1.0,30.53,NNE,24,6.0,9.0,60,0.00,,,0.00,Wunderground v.1.15,2013-01-24 10:12:00,
2013-01-24 04:18:00,12.1,0.9,30.53,NNE,17,6.0,9.0,60,0.00,,,0.00,Wunderground v.1.15,2013-01-24 10:18:00,
2013-01-24 04:24:00,12.1,0.9,30.53,NNE,24,7.0,11.0,60,0.00,,,0.00,Wunderground v.1.15,2013-01-24 10:24:00,
2013-01-24 04:30:00,12.0,0.8,30.53,NNE,30,7.0,7.0,60,0.00,,,0.00,Wunderground v.1.15,2013-01-24 10:30:00,
2013-01-24 04:36:00,11.9,1.0,30.53,NNE,21,6.0,10.0,61,0.00,,,0.00,Wunderground v.1.15,2013-01-24 10:36:00,
2013-01-24 04:42:00,11.8,0.9,30.54,NNE,17,6.0,10.0,61,0.00,,,0.00,Wunderground v.1.15,2013-01-24 10:42:00,
2013-01-24 04:48:00,11.8,0.9,30.54,NNE,26,6.0,11.0,61,0.00,,,0.00,Wunderground v.1.15,2013-01-24 10:48:00,
2013-01-24 04:54:00,11.7,0.8,30.54,NNE,24,6.0,6.0,61,0.00,,,0.00,Wunderground v.1.15,2013-01-24 10:54:00,
2013-01-24 05:00:00,11.6,0.7,30.54,NNE,25,5.0,12.0,61,0.00,,,0.00,Wunderground v.1.15,2013-01-24 11:00:00,
2013-01-24 05:06:00,11.5,0.6,30.55,NNE,26,6.0,12.0,61,0.00,,,0.00,Wunderground v.1.15,2013-01-24 11:06:00,
2013-01-24 05:12:00,11.4,0.5,30.55,NNE,25,6.0,12.0,61,0.00,,,0.00,Wunderground v.1.15,2013-01-24 11:12:00,
2013-01-24 05:18:00,11.3,0.4,30.55,NNE,26,5.0,12.0,61,0.00,,,0.00,Wunderground v.1.15,2013-01-24 11:18:00,
2013-01-24 05:24:00,11.2,0.4,30.55,NNE,30,4.0,12.0,61,0.00,,,0.00,Wunderground v.1.15,2013-01-24 11:24:00,
2013-01-24 05:30:00,11.1,0.3,30.55,NNE,25,5.0,5.0,61,0.00,,,0.00,Wunderground v.1.15,2013-01-24 11:30:00,
2013-01-24 05:36:00,11.0,0.2,30.55,NNE,28,5.0,12.0,61,0.00,,,0.00,Wunderground v.1.15,2013-01-24 11:36:00,
2013-01-24 05:42:00,10.9,0.1,30.55,NNE,25,6.0,7.0,61,0.00,,,0.00,Wunderground v.1.15,2013-01-24 11:42:00,
2013-01-24 05:48:00,10.8,0.0,30.55,NNE,24,6.0,12.0,61,0.00,,,0.00,Wunderground v.1.15,2013-01-24 11:48:00,
2013-01-24 05:54:00,10.8,0.0,30.55,NNE,30,4.0,12.0,61,0.00,,,0.00,Wunderground v.1.15,2013-01-24 11:54:00,
2013-01-24 06:00:00,10.7,0.2,30.55,NNE,28,5.0,5.0,62,0.00,,,0.00,Wunderground v.1.15,2013-01-24 12:00:00,
2013-01-24 06:06:00,10.6,0.1,30.54,NNE,26,6.0,13.0,62,0.00,,,0.00,Wunderground v.1.15,2013-01-24 12:06:00,
2013-01-24 06:12:00,10.5,0.0,30.54,NNE,30,5.0,12.0,62,0.00,,,0.00,Wunderground v.1.15,2013-01-24 12:12:00,
2013-01-24 06:18:00,10.5,0.0,30.55,NNE,31,4.0,12.0,62,0.00,,,0.00,Wunderground v.1.15,2013-01-24 12:18:00,
2013-01-24 06:24:00,10.4,-0.1,30.54,NNE,33,4.0,12.0,62,0.00,,,0.00,Wunderground v.1.15,2013-01-24 12:24:00,
2013-01-24 06:30:00,10.4,-0.1,30.55,NNE,25,4.0,12.0,62,0.00,,,0.00,Wunderground v.1.15,2013-01-24 12:30:00,
2013-01-24 06:36:00,10.3,-0.2,30.54,NNE,30,5.0,12.0,62,0.00,,,0.00,Wunderground v.1.15,2013-01-24 12:36:00,
2013-01-24 06:42:00,10.3,-0.2,30.55,NNE,31,4.0,12.0,62,0.00,,,0.00,Wunderground v.1.15,2013-01-24 12:42:00,
2013-01-24 06:48:00,10.2,-0.2,30.55,NE,34,4.0,12.0,62,0.00,,,0.00,Wunderground v.1.15,2013-01-24 12:48:00,
2013-01-24 06:54:00,10.2,-0.2,30.55,NE,36,4.0,12.0,62,0.00,,,0.00,Wunderground v.1.15,2013-01-24 12:54:00,
2013-01-24 07:00:00,10.1,-0.3,30.55,NE,36,4.0,4.0,62,0.00,,,0.00,Wunderground v.1.15,2013-01-24 13:00:00,
2013-01-24 07:06:00,10.1,-0.3,30.55,NE,40,3.0,12.0,62,0.00,,,0.00,Wunderground v.1.15,2013-01-24 13:06:00,
2013-01-24 07:12:00,10.1,-0.3,30.55,NNE,32,4.0,12.0,62,0.00,,,0.00,Wunderground v.1.15,2013-01-24 13:12:00,
2013-01-24 07:18:00,10.2,-0.2,30.55,NNE,32,4.0,12.0,62,0.00,,,0.00,Wunderground v.1.15,2013-01-24 13:18:00,
2013-01-24 07:24:00,10.2,-0.2,30.56,NE,36,3.0,12.0,62,0.00,,,0.00,Wunderground v.1.15,2013-01-24 13:24:00,
2013-01-24 07:30:00,10.2,-0.2,30.56,NNE,33,4.0,4.0,62,0.00,,,0.00,Wunderground v.1.15,2013-01-24 13:30:00,
2013-01-24 07:36:00,10.2,0.1,30.56,NE,36,3.0,12.0,63,0.00,,,0.00,Wunderground v.1.15,2013-01-24 13:36:00,
2013-01-24 07:42:00,10.3,0.2,30.56,NE,36,2.0,12.0,63,0.00,,,0.00,Wunderground v.1.15,2013-01-24 13:42:00,
2013-01-24 07:48:00,10.4,0.3,30.56,NE,46,2.0,12.0,63,0.00,,,0.00,Wunderground v.1.15,2013-01-24 13:48:00,
2013-01-24 07:54:00,10.5,0.4,30.56,NE,38,3.0,12.0,63,0.00,,,0.00,Wunderground v.1.15,2013-01-24 13:54:00,
2013-01-24 08:00:00,10.6,0.5,30.56,NE,41,2.0,2.0,63,0.00,,,0.00,Wunderground v.1.15,2013-01-24 14:00:00,
2013-01-24 08:06:00,10.7,0.6,30.56,NE,34,3.0,3.0,63,0.00,,,0.00,Wunderground v.1.15,2013-01-24 14:06:00,
2013-01-24 08:12:00,10.9,0.8,30.56,NNE,32,3.0,3.0,63,0.00,,,0.00,Wunderground v.1.15,2013-01-24 14:12:00,
2013-01-24 08:18:00,11.1,0.9,30.56,NE,34,3.0,5.0,63,0.00,,,0.00,Wunderground v.1.15,2013-01-24 14:18:00,
2013-01-24 08:24:00,11.3,1.1,30.56,NE,40,3.0,12.0,63,0.00,,,0.00,Wunderground v.1.15,2013-01-24 14:24:00,
2013-01-24 08:30:00,11.4,1.2,30.56,ENE,68,4.0,5.0,63,0.00,,,0.00,Wunderground v.1.15,2013-01-24 14:30:00,
2013-01-24 08:36:00,11.5,1.3,30.56,NNE,29,5.0,7.0,63,0.00,,,0.00,Wunderground v.1.15,2013-01-24 14:36:00,
2013-01-24 08:42:00,11.7,1.5,30.56,NE,55,4.0,7.0,63,0.00,,,0.00,Wunderground v.1.15,2013-01-24 14:42:00,
2013-01-24 08:48:00,11.8,2.0,30.57,ENE,58,3.0,7.0,64,0.00,,,0.00,Wunderground v.1.15,2013-01-24 14:48:00,
2013-01-24 08:54:00,12.0,2.1,30.57,East,79,3.0,4.0,64,0.00,,,0.00,Wunderground v.1.15,2013-01-24 14:54:00,
2013-01-24 09:00:00,12.2,2.3,30.57,ENE,61,4.0,4.0,64,0.00,,,0.00,Wunderground v.1.15,2013-01-24 15:00:00,
2013-01-24 09:06:00,12.3,2.4,30.57,ENE,63,4.0,9.0,64,0.00,,,0.00,Wunderground v.1.15,2013-01-24 15:06:00,
2013-01-24 09:12:00,12.5,2.6,30.56,ENE,64,3.0,9.0,64,0.00,,,0.00,Wunderground v.1.15,2013-01-24 15:12:00,
2013-01-24 09:18:00,12.8,2.9,30.57,ENE,61,3.0,9.0,64,0.00,,,0.00,Wunderground v.1.15,2013-01-24 15:18:00,
2013-01-24 09:24:00,13.1,3.2,30.58,NE,48,3.0,9.0,64,0.00,,,0.00,Wunderground v.1.15,2013-01-24 15:24:00,
2013-01-24 09:30:00,13.3,3.4,30.59,ENE,65,2.0,9.0,64,0.00,,,0.00,Wunderground v.1.15,2013-01-24 15:30:00,
2013-01-24 09:36:00,13.6,3.7,30.59,ENE,66,2.0,9.0,64,0.00,,,0.00,Wunderground v.1.15,2013-01-24 15:36:00,
2013-01-24 09:42:00,13.8,3.9,30.58,ENE,74,2.0,9.0,64,0.00,,,0.00,Wunderground v.1.15,2013-01-24 15:42:00,
2013-01-24 09:48:00,14.0,4.1,30.58,NE,51,3.0,9.0,64,0.00,,,0.00,Wunderground v.1.15,2013-01-24 15:48:00,
2013-01-24 09:54:00,14.1,4.1,30.59,ENE,74,3.0,9.0,64,0.00,,,0.00,Wunderground v.1.15,2013-01-24 15:54:00,
2013-01-24 10:00:00,14.3,4.3,30.58,East,83,4.0,9.0,64,0.00,,,0.00,Wunderground v.1.15,2013-01-24 16:00:00,
2013-01-24 10:06:00,14.5,4.5,30.58,ENE,78,3.0,9.0,64,0.00,,,0.00,Wunderground v.1.15,2013-01-24 16:06:00,
2013-01-24 10:12:00,15.0,5.0,30.59,East,82,2.0,9.0,64,0.00,,,0.00,Wunderground v.1.15,2013-01-24 16:12:00,
2013-01-24 10:18:00,15.6,5.6,30.59,East,86,2.0,9.0,64,0.00,,,0.00,Wunderground v.1.15,2013-01-24 16:18:00,
2013-01-24 10:24:00,15.9,5.9,30.59,East,80,2.0,9.0,64,0.00,,,0.00,Wunderground v.1.15,2013-01-24 16:24:00,
2013-01-24 10:30:00,16.0,6.0,30.58,ENE,78,2.0,9.0,64,0.00,,,0.00,Wunderground v.1.15,2013-01-24 16:30:00,
2013-01-24 10:36:00,16.1,6.1,30.57,East,80,2.0,9.0,64,0.00,,,0.00,Wunderground v.1.15,2013-01-24 16:36:00,
2013-01-24 10:42:00,16.3,6.2,30.57,ENE,77,2.0,3.0,64,0.00,,,0.00,Wunderground v.1.15,2013-01-24 16:42:00,
2013-01-24 10:48:00,16.7,6.6,30.57,ENE,75,2.0,9.0,64,0.00,,,0.00,Wunderground v.1.15,2013-01-24 16:48:00,
2013-01-24 10:54:00,17.1,7.0,30.57,East,80,2.0,9.0,64,0.00,,,0.00,Wunderground v.1.15,2013-01-24 16:54:00,
2013-01-24 11:00:00,17.5,7.4,30.57,ENE,78,2.0,9.0,64,0.00,,,0.00,Wunderground v.1.15,2013-01-24 17:00:00,
2013-01-24 11:06:00,17.7,7.6,30.57,ENE,71,3.0,9.0,64,0.00,,,0.00,Wunderground v.1.15,2013-01-24 17:06:00,
2013-01-24 11:12:00,17.8,7.7,30.56,ENE,64,3.0,9.0,64,0.00,,,0.00,Wunderground v.1.15,2013-01-24 17:12:00,
2013-01-24 11:18:00,18.5,8.3,30.55,East,80,3.0,9.0,64,0.00,,,0.00,Wunderground v.1.15,2013-01-24 17:18:00,
2013-01-24 11:24:00,18.6,8.4,30.55,ENE,74,3.0,9.0,64,0.00,,,0.00,Wunderground v.1.15,2013-01-24 17:24:00,
2013-01-24 11:30:00,18.6,8.1,30.54,East,83,3.0,3.0,63,0.00,,,0.00,Wunderground v.1.15,2013-01-24 17:30:00,
2013-01-24 11:36:00,18.5,8.0,30.54,East,81,3.0,9.0,63,0.00,,,0.00,Wunderground v.1.15,2013-01-24 17:36:00,
2013-01-24 11:42:00,18.6,8.1,30.53,East,86,3.0,9.0,63,0.00,,,0.00,Wunderground v.1.15,2013-01-24 17:42:00,
2013-01-24 11:48:00,18.8,8.3,30.53,East,82,3.0,9.0,63,0.00,,,0.00,Wunderground v.1.15,2013-01-24 17:48:00,
2013-01-24 11:54:00,18.9,8.4,30.53,East,86,2.0,9.0,63,0.00,,,0.00,Wunderground v.1.15,2013-01-24 17:54:00,
2013-01-24 12:00:00,19.1,8.6,30.52,East,87,2.0,2.0,63,0.00,,,0.00,Wunderground v.1.15,2013-01-24 18:00:00,
2013-01-24 12:06:00,19.5,8.9,30.51,ENE,75,2.0,5.0,63,0.00,,,0.00,Wunderground v.1.15,2013-01-24 18:06:00,
2013-01-24 12:12:00,19.7,9.1,30.50,ENE,75,2.0,2.0,63,0.00,,,0.00,Wunderground v.1.15,2013-01-24 18:12:00,
2013-01-24 12:18:00,19.9,9.3,30.50,East,101,2.0,3.0,63,0.00,,,0.00,Wunderground v.1.15,2013-01-24 18:18:00,
2013-01-24 12:24:00,20.0,9.4,30.50,East,98,2.0,6.0,63,0.00,,,0.00,Wunderground v.1.15,2013-01-24 18:24:00,
2013-01-24 12:30:00,20.2,9.6,30.50,East,100,2.0,2.0,63,0.00,,,0.00,Wunderground v.1.15,2013-01-24 18:30:00,
2013-01-24 12:36:00,20.3,9.7,30.50,East,83,2.0,6.0,63,0.00,,,0.00,Wunderground v.1.15,2013-01-24 18:36:00,
2013-01-24 12:42:00,20.3,9.7,30.49,ENE,71,2.0,3.0,63,0.00,,,0.00,Wunderground v.1.15,2013-01-24 18:42:00,
2013-01-24 12:48:00,20.2,9.6,30.49,East,79,2.0,4.0,63,0.00,,,0.00,Wunderground v.1.15,2013-01-24 18:48:00,
2013-01-24 12:54:00,20.3,9.3,30.49,East,80,2.0,2.0,62,0.00,,,0.00,Wunderground v.1.15,2013-01-24 18:54:00,
2013-01-24 13:00:00,20.4,9.4,30.48,East,101,1.0,1.0,62,0.00,,,0.00,Wunderground v.1.15,2013-01-24 19:00:00,
2013-01-24 13:06:00,20.6,9.6,30.48,ESE,112,2.0,7.0,62,0.00,,,0.00,Wunderground v.1.15,2013-01-24 19:06:00,
2013-01-24 13:12:00,20.8,9.8,30.48,ESE,107,2.0,6.0,62,0.00,,,0.00,Wunderground v.1.15,2013-01-24 19:12:00,
2013-01-24 13:18:00,21.1,10.1,30.48,ESE,107,2.0,7.0,62,0.00,,,0.00,Wunderground v.1.15,2013-01-24 19:18:00,
2013-01-24 13:24:00,21.3,10.3,30.48,ESE,109,2.0,7.0,62,0.00,,,0.00,Wunderground v.1.15,2013-01-24 19:24:00,
2013-01-24 13:30:00,21.6,10.6,30.47,ESE,104,2.0,7.0,62,0.00,,,0.00,Wunderground v.1.15,2013-01-24 19:30:00,
2013-01-24 13:36:00,21.8,10.8,30.46,SE,127,2.0,7.0,62,0.00,,,0.00,Wunderground v.1.15,2013-01-24 19:36:00,
2013-01-24 13:42:00,22.0,11.0,30.45,ESE,112,2.0,7.0,62,0.00,,,0.00,Wunderground v.1.15,2013-01-24 19:42:00,
2013-01-24 13:48:00,22.2,10.8,30.45,SE,133,2.0,7.0,61,0.00,,,0.00,Wunderground v.1.15,2013-01-24 19:48:00,
2013-01-24 13:54:00,22.4,11.0,30.45,ESE,119,2.0,7.0,61,0.00,,,0.00,Wunderground v.1.15,2013-01-24 19:54:00,
2013-01-24 14:00:00,22.5,11.1,30.45,SE,130,2.0,7.0,61,0.00,,,0.00,Wunderground v.1.15,2013-01-24 20:00:00,
2013-01-24 14:06:00,22.6,11.2,30.44,SE,130,2.0,7.0,61,0.00,,,0.00,Wunderground v.1.15,2013-01-24 20:06:00,
2013-01-24 14:12:00,22.7,11.3,30.45,ESE,104,2.0,3.0,61,0.00,,,0.00,Wunderground v.1.15,2013-01-24 20:12:00,
2013-01-24 14:18:00,22.6,11.2,30.44,East,83,2.0,7.0,61,0.00,,,0.00,Wunderground v.1.15,2013-01-24 20:18:00,
2013-01-24 14:24:00,22.5,10.7,30.43,ESE,108,2.0,7.0,60,0.00,,,0.00,Wunderground v.1.15,2013-01-24 20:24:00,
2013-01-24 14:30:00,22.5,10.7,30.42,SE,128,2.0,2.0,60,0.00,,,0.00,Wunderground v.1.15,2013-01-24 20:30:00,
2013-01-24 14:36:00,22.5,10.7,30.42,ESE,121,2.0,7.0,60,0.00,,,0.00,Wunderground v.1.15,2013-01-24 20:36:00,
2013-01-24 14:42:00,22.5,10.7,30.42,ESE,123,3.0,7.0,60,0.00,,,0.00,Wunderground v.1.15,2013-01-24 20:42:00,
2013-01-24 14:48:00,22.5,10.7,30.42,East,86,2.0,7.0,60,0.00,,,0.00,Wunderground v.1.15,2013-01-24 20:48:00,
2013-01-24 14:54:00,22.4,10.2,30.41,East,85,2.0,7.0,59,0.00,,,0.00,Wunderground v.1.15,2013-01-24 20:54:00,
2013-01-24 15:00:00,22.4,10.2,30.41,East,80,2.0,2.0,59,0.00,,,0.00,Wunderground v.1.15,2013-01-24 21:00:00,
2013-01-24 15:06:00,22.4,10.2,30.40,ENE,57,2.0,3.0,59,0.00,,,0.00,Wunderground v.1.15,2013-01-24 21:06:00,
2013-01-24 15:12:00,22.4,10.2,30.40,SE,138,2.0,2.0,59,0.00,,,0.00,Wunderground v.1.15,2013-01-24 21:12:00,
2013-01-24 15:18:00,22.3,10.1,30.40,ESE,102,2.0,4.0,59,0.00,,,0.00,Wunderground v.1.15,2013-01-24 21:18:00,
2013-01-24 15:24:00,22.3,10.1,30.41,East,80,2.0,3.0,59,0.00,,,0.00,Wunderground v.1.15,2013-01-24 21:24:00,
2013-01-24 15:30:00,22.2,10.0,30.40,ENE,76,2.0,2.0,59,0.00,,,0.00,Wunderground v.1.15,2013-01-24 21:30:00,
2013-01-24 15:36:00,22.4,10.2,30.40,ESE,112,2.0,2.0,59,0.00,,,0.00,Wunderground v.1.15,2013-01-24 21:36:00,
2013-01-24 15:42:00,22.4,10.2,30.40,ESE,103,1.0,2.0,59,0.00,,,0.00,Wunderground v.1.15,2013-01-24 21:42:00,
2013-01-24 15:48:00,22.5,10.3,30.40,East,101,1.0,2.0,59,0.00,,,0.00,Wunderground v.1.15,2013-01-24 21:48:00,
2013-01-24 15:54:00,22.5,10.3,30.39,ESE,103,2.0,2.0,59,0.00,,,0.00,Wunderground v.1.15,2013-01-24 21:54:00,
2013-01-24 16:00:00,22.5,10.3,30.39,East,84,2.0,2.0,59,0.00,,,0.00,Wunderground v.1.15,2013-01-24 22:00:00,
2013-01-24 16:06:00,22.5,9.9,30.39,East,83,1.0,7.0,58,0.00,,,0.00,Wunderground v.1.15,2013-01-24 22:06:00,
2013-01-24 16:12:00,22.5,9.9,30.38,East,101,2.0,7.0,58,0.00,,,0.00,Wunderground v.1.15,2013-01-24 22:12:00,
2013-01-24 16:18:00,22.4,9.8,30.38,ESE,119,2.0,7.0,58,0.00,,,0.00,Wunderground v.1.15,2013-01-24 22:18:00,
2013-01-24 16:24:00,22.4,9.8,30.38,ESE,107,2.0,7.0,58,0.00,,,0.00,Wunderground v.1.15,2013-01-24 22:24:00,
2013-01-24 16:30:00,22.4,9.8,30.38,ESE,119,2.0,7.0,58,0.00,,,0.00,Wunderground v.1.15,2013-01-24 22:30:00,
2013-01-24 16:36:00,22.5,9.9,30.38,East,94,2.0,7.0,58,0.00,,,0.00,Wunderground v.1.15,2013-01-24 22:36:00,
2013-01-24 16:42:00,22.4,9.8,30.37,East,88,2.0,7.0,58,0.00,,,0.00,Wunderground v.1.15,2013-01-24 22:42:00,
2013-01-24 16:48:00,22.4,9.8,30.37,East,92,2.0,7.0,58,0.00,,,0.00,Wunderground v.1.15,2013-01-24 22:48:00,
2013-01-24 16:54:00,22.3,9.7,30.37,SE,128,2.0,7.0,58,0.00,,,0.00,Wunderground v.1.15,2013-01-24 22:54:00,
2013-01-24 17:00:00,22.2,9.7,30.37,ESE,110,2.0,2.0,58,0.00,,,0.00,Wunderground v.1.15,2013-01-24 23:00:00,
2013-01-24 17:06:00,22.2,9.3,30.36,ESE,119,1.0,7.0,57,0.00,,,0.00,Wunderground v.1.15,2013-01-24 23:06:00,
2013-01-24 17:12:00,22.0,9.1,30.37,ESE,118,2.0,7.0,57,0.00,,,0.00,Wunderground v.1.15,2013-01-24 23:12:00,
2013-01-24 17:18:00,21.9,9.0,30.36,ESE,123,1.0,7.0,57,0.00,,,0.00,Wunderground v.1.15,2013-01-24 23:18:00,
2013-01-24 17:24:00,21.8,8.9,30.36,ESE,108,1.0,7.0,57,0.00,,,0.00,Wunderground v.1.15,2013-01-24 23:24:00,
2013-01-24 17:30:00,21.8,8.9,30.36,SE,133,2.0,2.0,57,0.00,,,0.00,Wunderground v.1.15,2013-01-24 23:30:00,
2013-01-24 17:36:00,21.8,8.9,30.36,SE,133,2.0,7.0,57,0.00,,,0.00,Wunderground v.1.15,2013-01-24 23:36:00,
2013-01-24 17:42:00,21.8,8.9,30.36,SE,134,2.0,7.0,57,0.00,,,0.00,Wunderground v.1.15,2013-01-24 23:42:00,
2013-01-24 17:48:00,21.9,9.0,30.37,SE,130,1.0,7.0,57,0.00,,,0.00,Wunderground v.1.15,2013-01-24 23:48:00,
2013-01-24 17:54:00,22.0,9.1,30.37,ESE,119,1.0,7.0,57,0.00,,,0.00,Wunderground v.1.15,2013-01-24 23:54:00,
2013-01-24 18:00:00,22.1,9.2,30.35,ESE,105,1.0,1.0,57,0.00,,,0.00,Wunderground v.1.15,2013-01-25 00:00:00,
2013-01-24 18:06:00,22.1,9.2,30.36,ESE,107,1.0,1.0,57,0.00,,,0.00,Wunderground v.1.15,2013-01-25 00:06:00,
2013-01-24 18:12:00,22.2,9.3,30.36,ESE,106,0.0,2.0,57,0.00,,,0.00,Wunderground v.1.15,2013-01-25 00:12:00,
2013-01-24 18:18:00,22.3,9.4,30.35,East,98,1.0,2.0,57,0.00,,,0.00,Wunderground v.1.15,2013-01-25 00:18:00,
2013-01-24 18:24:00,22.3,9.4,30.35,East,88,1.0,2.0,57,0.00,,,0.00,Wunderground v.1.15,2013-01-25 00:24:00,
2013-01-24 18:30:00,22.3,9.4,30.35,East,87,1.0,1.0,57,0.00,,,0.00,Wunderground v.1.15,2013-01-25 00:30:00,
2013-01-24 18:36:00,22.4,9.4,30.35,East,84,1.0,2.0,57,0.00,,,0.00,Wunderground v.1.15,2013-01-25 00:36:00,
2013-01-24 18:42:00,22.4,9.4,30.35,East,83,1.0,1.0,57,0.00,,,0.00,Wunderground v.1.15,2013-01-25 00:42:00,
2013-01-24 18:48:00,22.4,9.4,30.35,East,84,1.0,1.0,57,0.00,,,0.00,Wunderground v.1.15,2013-01-25 00:48:00,
2013-01-24 18:54:00,22.4,9.4,30.35,East,98,1.0,3.0,57,0.00,,,0.00,Wunderground v.1.15,2013-01-25 00:54:00,
2013-01-24 19:00:00,22.5,9.5,30.34,East,95,1.0,1.0,57,0.00,,,0.00,Wunderground v.1.15,2013-01-25 01:00:00,
2013-01-24 19:06:00,22.5,9.5,30.34,East,82,1.0,5.0,57,0.00,,,0.00,Wunderground v.1.15,2013-01-25 01:06:00,
2013-01-24 19:12:00,22.6,9.6,30.34,ENE,78,2.0,2.0,57,0.00,,,0.00,Wunderground v.1.15,2013-01-25 01:12:00,
2013-01-24 19:18:00,22.6,9.6,30.34,East,94,1.0,5.0,57,0.00,,,0.00,Wunderground v.1.15,2013-01-25 01:18:00,
2013-01-24 19:24:00,22.7,9.7,30.34,East,96,1.0,5.0,57,0.00,,,0.00,Wunderground v.1.15,2013-01-25 01:24:00,
2013-01-24 19:30:00,22.8,9.8,30.33,East,79,1.0,5.0,57,0.00,,,0.00,Wunderground v.1.15,2013-01-25 01:30:00,
2013-01-24 19:36:00,22.9,9.9,30.33,East,86,1.0,5.0,57,0.00,,,0.00,Wunderground v.1.15,2013-01-25 01:36:00,
2013-01-24 19:42:00,22.9,9.9,30.32,ESE,122,2.0,5.0,57,0.00,,,0.00,Wunderground v.1.15,2013-01-25 01:42:00,
2013-01-24 19:48:00,22.9,9.9,30.30,SE,131,3.0,5.0,57,0.00,,,0.00,Wunderground v.1.15,2013-01-25 01:48:00,
2013-01-24 19:54:00,22.9,9.9,30.30,SE,136,2.0,5.0,57,0.00,,,0.00,Wunderground v.1.15,2013-01-25 01:54:00,
2013-01-24 20:00:00,23.0,10.0,30.30,SE,129,3.0,3.0,57,0.00,,,0.00,Wunderground v.1.15,2013-01-25 02:00:00,
2013-01-24 20:06:00,23.0,10.0,30.30,SE,132,2.0,5.0,57,0.00,,,0.00,Wunderground v.1.15,2013-01-25 02:06:00,
2013-01-24 20:12:00,23.1,10.1,30.31,SE,128,2.0,5.0,57,0.00,,,0.00,Wunderground v.1.15,2013-01-25 02:12:00,
2013-01-24 20:18:00,23.2,10.2,30.30,ESE,115,1.0,5.0,57,0.00,,,0.00,Wunderground v.1.15,2013-01-25 02:18:00,
2013-01-24 20:24:00,23.3,10.3,30.30,SE,140,2.0,5.0,57,0.00,,,0.00,Wunderground v.1.15,2013-01-25 02:24:00,
2013-01-24 20:30:00,23.3,10.3,30.31,ESE,118,3.0,3.0,57,0.00,,,0.00,Wunderground v.1.15,2013-01-25 02:30:00,
2013-01-24 20:36:00,23.4,10.4,30.30,ESE,114,2.0,5.0,57,0.00,,,0.00,Wunderground v.1.15,2013-01-25 02:36:00,
2013-01-24 20:42:00,23.5,10.5,30.31,SE,145,1.0,6.0,57,0.00,,,0.00,Wunderground v.1.15,2013-01-25 02:42:00,
2013-01-24 20:48:00,23.6,10.6,30.30,SE,132,2.0,6.0,57,0.00,,,0.00,Wunderground v.1.15,2013-01-25 02:48:00,
2013-01-24 20:54:00,23.6,10.6,30.30,SE,136,3.0,5.0,57,0.00,,,0.00,Wunderground v.1.15,2013-01-25 02:54:00,
2013-01-24 21:00:00,23.7,10.7,30.29,SE,142,3.0,3.0,57,0.00,,,0.00,Wunderground v.1.15,2013-01-25 03:00:00,
2013-01-24 21:06:00,23.8,10.8,30.28,SE,138,3.0,8.0,57,0.00,,,0.00,Wunderground v.1.15,2013-01-25 03:06:00,
2013-01-24 21:12:00,23.8,10.8,30.28,SE,142,4.0,4.0,57,0.00,,,0.00,Wunderground v.1.15,2013-01-25 03:12:00,
2013-01-24 21:18:00,23.9,10.9,30.29,SE,133,5.0,9.0,57,0.00,,,0.00,Wunderground v.1.15,2013-01-25 03:18:00,
2013-01-24 21:24:00,24.0,11.0,30.28,SSE,152,6.0,9.0,57,0.00,,,0.00,Wunderground v.1.15,2013-01-25 03:24:00,
2013-01-24 21:30:00,24.0,11.0,30.28,SSE,154,6.0,13.0,57,0.00,,,0.00,Wunderground v.1.15,2013-01-25 03:30:00,
2013-01-24 21:36:00,24.1,11.0,30.28,SSE,148,6.0,13.0,57,0.00,,,0.00,Wunderground v.1.15,2013-01-25 03:36:00,
2013-01-24 21:42:00,24.2,11.1,30.28,SE,142,5.0,6.0,57,0.00,,,0.00,Wunderground v.1.15,2013-01-25 03:42:00,
2013-01-24 21:48:00,24.2,11.1,30.28,SSE,151,5.0,6.0,57,0.00,,,0.00,Wunderground v.1.15,2013-01-25 03:48:00,
2013-01-24 21:54:00,24.3,11.2,30.27,SE,146,6.0,11.0,57,0.00,,,0.00,Wunderground v.1.15,2013-01-25 03:54:00,
2013-01-24 22:00:00,24.3,11.2,30.27,SE,138,5.0,11.0,57,0.00,,,0.00,Wunderground v.1.15,2013-01-25 04:00:00,
2013-01-24 22:06:00,24.3,11.2,30.27,SSE,153,5.0,11.0,57,0.00,,,0.00,Wunderground v.1.15,2013-01-25 04:06:00,
2013-01-24 22:12:00,24.4,11.3,30.27,SSE,153,4.0,11.0,57,0.00,,,0.00,Wunderground v.1.15,2013-01-25 04:12:00,
2013-01-24 22:18:00,24.4,11.3,30.28,SE,132,2.0,11.0,57,0.00,,,0.00,Wunderground v.1.15,2013-01-25 04:18:00,
2013-01-24 22:24:00,24.5,11.4,30.28,SE,140,3.0,11.0,57,0.00,,,0.00,Wunderground v.1.15,2013-01-25 04:24:00,
2013-01-24 22:30:00,24.5,11.4,30.28,SE,140,2.0,11.0,57,0.00,,,0.00,Wunderground v.1.15,2013-01-25 04:30:00,
2013-01-24 22:36:00,24.6,11.5,30.29,SE,142,2.0,11.0,57,0.00,,,0.00,Wunderground v.1.15,2013-01-25 04:36:00,
2013-01-24 22:42:00,24.6,11.5,30.28,SE,141,1.0,11.0,57,0.00,,,0.00,Wunderground v.1.15,2013-01-25 04:42:00,
2013-01-24 22:48:00,24.7,11.6,30.28,SE,142,1.0,11.0,57,0.00,,,0.00,Wunderground v.1.15,2013-01-25 04:48:00,
2013-01-24 22:54:00,24.7,11.6,30.27,SE,142,1.0,11.0,57,0.00,,,0.00,Wunderground v.1.15,2013-01-25 04:54:00,
2013-01-24 23:00:00,24.7,11.6,30.28,SE,142,1.0,1.0,57,0.00,,,0.00,Wunderground v.1.15,2013-01-25 05:00:00,
2013-01-24 23:02:00,24.8,11.7,30.27,SE,142,1.0,2.0,57,0.00,,,0.00,Wunderground v.1.15,2013-01-25 05:02:00,
2013-01-24 23:08:00,24.8,11.7,30.27,SE,142,1.0,11.0,57,0.00,,,0.00,Wunderground v.1.15,2013-01-25 05:08:00,
2013-01-24 23:14:00,24.8,11.7,30.26,SE,142,1.0,11.0,57,0.00,,,0.00,Wunderground v.1.15,2013-01-25 05:14:00,
2013-01-24 23:20:00,24.8,11.7,30.25,SE,141,2.0,2.0,57,0.00,,,0.00,Wunderground v.1.15,2013-01-25 05:20:00,
2013-01-24 23:26:00,24.9,11.8,30.25,SE,138,2.0,11.0,57,0.00,,,0.00,Wunderground v.1.15,2013-01-25 05:26:00,
2013-01-24 23:32:00,24.9,11.8,30.24,SE,137,2.0,11.0,57,0.00,,,0.00,Wunderground v.1.15,2013-01-25 05:32:00,
2013-01-24 23:38:00,24.9,11.8,30.25,SE,137,1.0,11.0,57,0.00,,,0.00,Wunderground v.1.15,2013-01-25 05:38:00,
2013-01-24 23:44:00,24.9,11.8,30.25,SE,136,1.0,11.0,57,0.00,,,0.00,Wunderground v.1.15,2013-01-25 05:44:00,
2013-01-24 23:50:00,24.9,11.8,30.25,SE,136,1.0,1.0,57,0.00,,,0.00,Wunderground v.1.15,2013-01-25 05:50:00,
2013-01-24 23:56:00,24.9,11.8,30.24,SE,136,0.0,11.0,57,0.00,,,0.00,Wunderground v.1.15,2013-01-25 05:56:00,